Regional Weather Roundup
Issued by NWS Upton, NY

Current Version | Previous Version | Text Only | Print | Product List | Glossary Off
Versions: 1 2 3 4 5 6 7 8 9 10 11 12 13 14 15 16 17 18 19 20 21 22 23 24 25 26 27 28 29 30 31 32 33 34 35 36 37 38 39 40 41 42 43 44 45 46 47 48 49 50
888 ASUS41 KOKX 251408 RWROKX REGIONAL WEATHER ROUNDUP NATIONAL WEATHER SERVICE NEW YORK NY 1000 AM EDT MON SEP 25 2017 NOTE: "FAIR" INDICATES FEW OR NO CLOUDS BELOW 12,000 FEET WITH NO SIGNIFICANT WEATHER AND/OR OBSTRUCTIONS TO VISIBILITY. NYZ071-072-176-178-NJZ106-104-251500- NEW YORK CITY METRO AREA CITY SKY/WX TMP DP RH WIND PRES REMARKS Central Park SUNNY 79 65 62 NE6 30.11R Bronx Bot Gard N/A 79 64 61 NE2 30.10S LaGuardia APRT SUNNY 77 66 68 NE8 30.07S Kennedy INTL MOSUNNY 77 68 73 S5 30.09R Breezy Point N/A 72 N/A N/A SE3 N/A Newark/Liberty SUNNY 81 66 60 NE3 30.07S Teterboro SUNNY 80 67 64 E5 30.07R $$ NYZ177-179-078>081-251500- LONG ISLAND NEW YORK CITY SKY/WX TMP DP RH WIND PRES REMARKS Jones Beach N/A 75 N/A N/A S3 N/A Matinecock PT N/A 73 N/A N/A NE3 N/A Farmingdale SUNNY 76 58 53 CALM 30.09R MacArthur/ISP SUNNY 78 60 53 VRB5 30.09R Shirley SUNNY 79 64 60 VRB5 30.10R Mt Sinai Harb N/A N/A N/A N/A N2 N/A Westhampton SUNNY 75 63 66 SE3 30.11R East Hampton FAIR 72 66 82 CALM 30.09S Montauk N/A 71 67 87 VRB3 30.10R $$ NYZ052-065-067-251500- HUDSON VALLEY CITY SKY/WX TMP DP RH WIND PRES REMARKS White Plains SUNNY 77 67 71 E3 30.10R Larchmont Harb N/A 73 N/A N/A CALM N/A Croton On Huds N/A 75 N/A N/A MISG N/A Newburgh SUNNY 77 70 78 CALM 30.12R Montgomery SUNNY 77 69 76 VRB5 30.10S Poughkeepsie SUNNY 76 67 73 CALM 30.09S Albany SUNNY 76 68 76 N8 30.11S $$ NJZ001-105-106-008-010-013-015-019>022-104-251500- NEW JERSEY CITY SKY/WX TMP DP RH WIND PRES REMARKS Newark/Liberty SUNNY 81 66 60 NE3 30.07S Teterboro SUNNY 80 67 64 E5 30.07R Caldwell SUNNY 79 69 71 VRB5 30.10R Somerville NOT AVBL Linden FAIR 79 64 60 CALM 30.07S Perth Amboy N/A 73 N/A N/A SE7 N/A Sussex SUNNY 78 70 76 NE7 30.11R Andover N/A 78 69 73 VRB3 30.11S Trenton SUNNY 78 69 73 S5 30.07S Millville SUNNY 79 64 60 CALM 30.06S Atlantic City SUNNY 78 64 61 VRB5 30.07S Wrightstown SUNNY 78 65 65 CALM 30.05R Toms River SUNNY 79 63 57 CALM 30.08S Belmar SUNNY 78 65 63 S5 30.09R $$ PAZ047>061-062-071-251500- EASTERN PENNSYLVANIA CITY SKY/WX TMP DP RH WIND PRES REMARKS Philadelphia MOSUNNY 79 66 64 CALM 30.07S Allentown SUNNY 80 68 66 NE7 30.10R Scranton SUNNY 76 66 71 N3 30.13S $$ CTZ002-004>006-009-010-012-RIZ004-006-007-MAZ004-011-015-251500- SOUTHERN NEW ENGLAND IN CT CITY SKY/WX TMP DP RH WIND PRES REMARKS Bradley INTL SUNNY 80 69 69 N6 30.09R Hartford SUNNY 77 69 76 NE6 30.08S Danbury SUNNY 79 68 69 NE6 30.12R Wtrbury/Oxford SUNNY 78 69 73 E6 30.12R Norwalk Harbor N/A 72 N/A N/A NE3 N/A Bridgeport SUNNY 75 67 76 E6 30.09R Meriden SUNNY 79 67 66 VRB3 30.09R New Haven SUNNY 76 66 71 SE8 30.09R Chester FAIR 79 66 65 CALM 30.10S Groton SUNNY 73 64 73 S5 30.08S Wilimantic SUNNY 77 68 73 CALM 30.09R IN RI CITY SKY/WX TMP DP RH WIND PRES REMARKS Providence SUNNY 77 65 66 SE3 30.09S Block Island SUNNY 71 67 87 VRB5 30.10R Westerly SUNNY 75 65 70 SE5 30.10R IN MA CITY SKY/WX TMP DP RH WIND PRES REMARKS Boston SUNNY 72 66 81 CALM 30.09R Worcester SUNNY 77 66 68 E6 30.13R Westfield SUNNY 80 69 69 N7 30.09R Provincetown SUNNY 74 67 78 CALM 30.10R Nantucket CLOUDY 69 69 100 E8 30.09R $$ ANZ330-335-338-340-345-350-353-355-251500- COASTAL MARINE OBSERVATIONS STATION/POSITION TIME SKY/WX TEMP WIND PRES VSBY WAVE AIR SEA DIR/SP/G HT/PER (UTC) (F) (DEG/KT/KT) (MB) (MI) (FT/S) NY HARB ENTRANCE 1350 72 72 190/ 2/ 4 1017.8 4/12 20 S FIRE ISLAND 1250 69 68 180/ 2/ 4 1018.6 5/13 GREAT SOUTH BAY 1330 72 72 CALM / 2 N/A 23 SSW MONTAUK P 1350 66 65 1019.2 6/15 15 E BARNEGAT LI 1330 71 N/A 4/11 HUDSON CANYON 1250 66 69 110/ 6/ 8 1017.4 7/11 KINGS POINT 1336 72 72 40/ 5/ 7 1019.5 EXECUTION ROCKS 1345 76 40/ 4/ 6 N/A WESTERN LI SOUND NOT AVBL CENTRAL LI SOUND 1330 71 170/ 2/ 4 N/A 0 EASTERN LI SOUND NOT AVBL ROBBINS REEF 1348 77 30/ 3/ 4 1019.1 $$ >>>>>>>>>>>>>>>>>>>>>>>>>>>> KEY <<<<<<<<<<<<<<<<<<<<<<<<<<< > < > SKY/WX - Sky Condition/Present Weather < > TMP - Temperature in Fahrenheit < > DP - Dew Point in Fahrenheit < > RH - Relative Humidity in Percent < > WIND - Direction (from) and Speed in MPH < > PRES - Mean Sea Level Pressure (inches of Hg) < > WCI - Wind Chill Index < > VSB - VISIBILITY IN MILES < > HX - HEAT INDEX < > TC - TEMPERATURE IN CELSIUS < > VRB - VARIABLE WIND DIRECTION < > < >>>>>>>>>>>>>>>>>>>>>>>>>>>> KEY <<<<<<<<<<<<<<<<<<<<<<<<<<<

USA.gov is the U.S. government's official web portal to all federal, state and local government web resources and services.